• In Hungary
  • List of Countries
  • For 7 days
  • Water Temperature
  • Satellite Maps
  • Weather Map
  • News
  • Weather Widgets
  • user-avatar
    Login

    Hourly Weather Stanitsa Luganskaya

    Today, 18 October, Wednesday

    Time Temperature Precipitation Wind Pressure Humidity
    00:00 +10°C° 0 mm 2 mps 760 mmHg 92%
    01:00 +10°C° 0 mm 2 mps 761 mmHg 92%
    02:00 +9°C° 0 mm 2 mps 761 mmHg 92%
    03:00 +9°C° 0 mm 2 mps 761 mmHg 92%
    04:00 +10°C° 0 mm 1 mps 761 mmHg 92%
    05:00 +9°C° 0 mm 1 mps 761 mmHg 91%
    06:00 +9°C° 0 mm 1 mps 761 mmHg 91%
    07:00 +10°C° 0 mm 1 mps 762 mmHg 87%
    08:00 +11°C° 0 mm 1 mps 762 mmHg 82%
    09:00 +12°C° 0 mm 2 mps 762 mmHg 77%
    10:00 +14°C° 0 mm 2 mps 762 mmHg 69%
    11:00 +16°C° 0 mm 3 mps 761 mmHg 60%
    12:00 +18°C° 0 mm 3 mps 761 mmHg 52%
    13:00 +18°C° 0 mm 4 mps 761 mmHg 50%
    14:00 +19°C° 0 mm 4 mps 761 mmHg 48%
    15:00 +20°C° 0 mm 4 mps 760 mmHg 47%
    16:00 +19°C° 0 mm 4 mps 760 mmHg 52%
    17:00 +17°C° 0 mm 4 mps 760 mmHg 57%
    18:00 +16°C° 0 mm 3 mps 760 mmHg 62%
    19:00 +16°C° 0 mm 3 mps 760 mmHg 64%
    20:00 +14°C° 0 mm 3 mps 759 mmHg 66%
    21:00 +14°C° 0 mm 4 mps 759 mmHg 68%
    22:00 +13°C° 0 mm 4 mps 759 mmHg 69%
    23:00 +13°C° 0 mm 4 mps 759 mmHg 71%

    Tomorrow, 19 October, Thursday

    Time Temperature Precipitation Wind Pressure Humidity
    00:00 +13°C° 0 mm 4 mps 759 mmHg 73%
    01:00 +13°C° 0 mm 4 mps 759 mmHg 74%
    02:00 +12°C° 0 mm 4 mps 759 mmHg 76%
    03:00 +12°C° 0 mm 4 mps 759 mmHg 78%
    04:00 +12°C° 0 mm 4 mps 759 mmHg 80%
    05:00 +12°C° 0 mm 4 mps 759 mmHg 82%
    06:00 +11°C° 0 mm 4 mps 758 mmHg 84%
    07:00 +12°C° 0 mm 4 mps 759 mmHg 80%
    08:00 +13°C° 0 mm 4 mps 759 mmHg 75%
    09:00 +14°C° 0 mm 5 mps 759 mmHg 71%
    10:00 +16°C° 0 mm 5 mps 759 mmHg 65%
    11:00 +19°C° 0 mm 5 mps 758 mmHg 60%
    12:00 +20°C° 0 mm 5 mps 758 mmHg 54%
    13:00 +21°C° 0 mm 4 mps 758 mmHg 53%
    14:00 +21°C° 0 mm 4 mps 758 mmHg 51%
    15:00 +22°C° 0 mm 4 mps 758 mmHg 49%
    16:00 +21°C° 0 mm 4 mps 758 mmHg 54%
    17:00 +19°C° 0 mm 3 mps 757 mmHg 59%
    18:00 +18°C° 0 mm 2 mps 757 mmHg 64%
    19:00 +17°C° 0 mm 2 mps 758 mmHg 68%
    20:00 +17°C° 0 mm 2 mps 758 mmHg 71%
    21:00 +16°C° 0 mm 2 mps 758 mmHg 74%
    22:00 +15°C° 0 mm 2 mps 758 mmHg 76%
    23:00 +15°C° 0 mm 2 mps 758 mmHg 78%

    Day after tomorrow, 20 October, Friday

    Time Temperature Precipitation Wind Pressure Humidity
    00:00 +15°C° 0 mm 2 mps 758 mmHg 80%
    01:00 +14°C° 0 mm 2 mps 757 mmHg 82%
    02:00 +14°C° 0 mm 1 mps 757 mmHg 83%
    03:00 +14°C° 0 mm 1 mps 757 mmHg 84%
    04:00 +14°C° 0 mm 1 mps 757 mmHg 85%
    05:00 +13°C° 0 mm 1 mps 757 mmHg 85%
    06:00 +13°C° 0 mm 1 mps 757 mmHg 86%
    07:00 +14°C° 0 mm 1 mps 757 mmHg 82%
    08:00 +15°C° 0 mm 1 mps 757 mmHg 78%
    09:00 +16°C° 0 mm 1 mps 758 mmHg 74%
    10:00 +18°C° 0 mm 1 mps 758 mmHg 69%
    11:00 +20°C° 0 mm 1 mps 757 mmHg 63%
    12:00 +21°C° 0 mm 1 mps 757 mmHg 58%
    13:00 +20°C° 0 mm 2 mps 757 mmHg 56%
    14:00 +21°C° 0 mm 2 mps 757 mmHg 54%
    15:00 +21°C° 0 mm 3 mps 757 mmHg 52%
    16:00 +19°C° 0 mm 3 mps 757 mmHg 57%
    17:00 +18°C° 0 mm 3 mps 757 mmHg 63%
    18:00 +15°C° 0 mm 4 mps 757 mmHg 69%
    19:00 +14°C° 0.2 mm 4 mps 757 mmHg 72%
    20:00 +12°C° 0.2 mm 5 mps 758 mmHg 75%
    21:00 +10°C° 0.2 mm 5 mps 758 mmHg 78%
    22:00 +10°C° 0.1 mm 5 mps 758 mmHg 76%
    23:00 +10°C° 0.1 mm 5 mps 759 mmHg 74%

    21 October, Saturday

    Time Temperature Precipitation Wind Pressure Humidity
    00:00 +10°C° 0.1 mm 4 mps 759 mmHg 72%
    01:00 +10°C° 0 mm 4 mps 759 mmHg 70%
    02:00 +10°C° 0 mm 4 mps 759 mmHg 68%
    03:00 +8°C° 0 mm 4 mps 759 mmHg 67%
    04:00 +8°C° 0 mm 4 mps 760 mmHg 68%
    05:00 +7°C° 0 mm 4 mps 760 mmHg 69%
    06:00 +6°C° 0 mm 4 mps 760 mmHg 70%
    07:00 +6°C° 0 mm 4 mps 760 mmHg 67%
    08:00 +7°C° 0 mm 4 mps 761 mmHg 64%
    09:00 +7°C° 0 mm 4 mps 761 mmHg 61%
    10:00 +8°C° 0 mm 4 mps 761 mmHg 55%
    11:00 +10°C° 0 mm 4 mps 761 mmHg 49%
    12:00 +11°C° 0 mm 4 mps 761 mmHg 43%
    13:00 +11°C° 0 mm 4 mps 761 mmHg 42%
    14:00 +11°C° 0 mm 4 mps 761 mmHg 41%
    15:00 +12°C° 0 mm 4 mps 761 mmHg 39%
    16:00 +11°C° 0 mm 3 mps 761 mmHg 43%
    17:00 +9°C° 0 mm 3 mps 761 mmHg 47%
    18:00 +8°C° 0 mm 2 mps 762 mmHg 50%
    19:00 +8°C° 0 mm 2 mps 762 mmHg 52%
    20:00 +7°C° 0 mm 2 mps 762 mmHg 54%
    21:00 +7°C° 0 mm 2 mps 763 mmHg 56%
    22:00 +6°C° 0 mm 2 mps 763 mmHg 58%
    23:00 +6°C° 0 mm 2 mps 763 mmHg 60%

    22 October, Sunday

    Time Temperature Precipitation Wind Pressure Humidity
    00:00 +5°C° 0 mm 2 mps 763 mmHg 62%
    01:00 +6°C° 0 mm 1 mps 763 mmHg 63%
    02:00 +5°C° 0 mm 1 mps 763 mmHg 65%
    03:00 +5°C° 0 mm 1 mps 763 mmHg 66%
    04:00 +5°C° 0 mm 1 mps 764 mmHg 67%
    05:00 +4°C° 0 mm 1 mps 764 mmHg 68%
    06:00 +4°C° 0 mm 1 mps 764 mmHg 69%
    07:00 +5°C° 0 mm 1 mps 764 mmHg 66%
    08:00 +6°C° 0 mm 1 mps 764 mmHg 62%
    09:00 +6°C° 0 mm 1 mps 765 mmHg 58%
    10:00 +7°C° 0 mm 1 mps 764 mmHg 54%
    11:00 +8°C° 0 mm 1 mps 764 mmHg 51%
    12:00 +9°C° 0 mm 1 mps 764 mmHg 47%
    13:00 +10°C° 0 mm 1 mps 764 mmHg 44%
    14:00 +10°C° 0 mm 1 mps 764 mmHg 42%
    15:00 +9°C° 0 mm 2 mps 763 mmHg 40%
    16:00 +8°C° 0 mm 2 mps 763 mmHg 42%
    17:00 +7°C° 0 mm 2 mps 763 mmHg 45%
    18:00 +8°C° 0 mm 1 mps 763 mmHg 47%
    19:00 +7°C° 0 mm 1 mps 763 mmHg 49%
    20:00 +6°C° 0 mm 1 mps 763 mmHg 50%
    21:00 +6°C° 0 mm 1 mps 763 mmHg 52%
    22:00 +6°C° 0 mm 1 mps 763 mmHg 53%
    23:00 +5°C° 0 mm 1 mps 763 mmHg 54%

    23 October, Monday

    Time Temperature Precipitation Wind Pressure Humidity
    00:00 +5°C° 0 mm 1 mps 763 mmHg 56%
    01:00 +4°C° 0 mm 1 mps 763 mmHg 57%
    02:00 +4°C° 0 mm 1 mps 763 mmHg 59%
    03:00 +4°C° 0 mm 1 mps 763 mmHg 60%
    04:00 +4°C° 0 mm 1 mps 763 mmHg 61%
    05:00 +3°C° 0 mm 1 mps 763 mmHg 62%
    06:00 +3°C° 0 mm 1 mps 763 mmHg 63%
    07:00 +4°C° 0 mm 1 mps 763 mmHg 60%
    08:00 +5°C° 0 mm 1 mps 763 mmHg 56%
    09:00 +6°C° 0 mm 1 mps 763 mmHg 52%
    10:00 +8°C° 0 mm 1 mps 763 mmHg 48%
    11:00 +9°C° 0 mm 1 mps 763 mmHg 44%
    12:00 +10°C° 0 mm 1 mps 763 mmHg 40%
    13:00 +10°C° 0 mm 1 mps 763 mmHg 38%
    14:00 +11°C° 0 mm 1 mps 762 mmHg 36%
    15:00 +11°C° 0 mm 1 mps 762 mmHg 34%
    16:00 +10°C° 0 mm 1 mps 762 mmHg 37%
    17:00 +9°C° 0 mm 1 mps 762 mmHg 40%
    18:00 +8°C° 0 mm 1 mps 762 mmHg 42%
    19:00 +8°C° 0 mm 1 mps 762 mmHg 44%
    20:00 +6°C° 0 mm 2 mps 762 mmHg 46%
    21:00 +6°C° 0 mm 2 mps 763 mmHg 47%
    22:00 +5°C° 0 mm 2 mps 763 mmHg 49%
    23:00 +5°C° 0 mm 2 mps 763 mmHg 50%
    Show more